Regional Weather Roundup
Issued by NWS

Home | Current Version | Previous Version | Graphics & Text | Print | Product List | Glossary On
Versions: 1 2 3 4 5 6 7 8 9 10 11 12 13 14 15 16 17 18 19 20 21 22 23 24 25 26 27 28 29 30 31 32 33 34 35 36 37 38 39 40 41 42 43 44 45 46 47 48 49 50
000
ASUS43 KDTX 180310
RWRMI
MICHIGAN HOURLY REGIONAL WEATHER ROUNDUP
NATIONAL WEATHER SERVICE DETROIT/PONTIAC MI
1000 PM EST SUN DEC 17 2017

NOTE: "FAIR" INDICATES FEW OR NO CLOUDS BELOW 12,000 FEET WITH NO
SIGNIFICANT WEATHER AND/OR OBSTRUCTION TO VISIBILITY.

MIZ047>049-052>055-059>063-066>070-074>076-081>083-180400-
SOUTHEAST LOWER MICHIGAN

CITY           SKY/WX    TMP DP  RH WIND       PRES   REMARKS
ADRIAN         CLOUDY    33  31  92 SW6       30.05S FOG     WCI  28
ALMA           CLOUDY    29  28  97 E5        30.01F FOG     WCI  24
ANN ARBOR      CLOUDY    32  30  92 S5        30.02F FOG     WCI  27
BAD AXE        CLOUDY    28  25  89 S6        30.04F WCI  21
CARO           CLOUDY    27  26  96 SE6       30.01F FOG     WCI  20
DETROIT CITY   CLOUDY    32  30  92 CALM      30.04F FOG
DETROIT        CLOUDY    34  30  85 S6        30.04F FOG     WCI  29
FLINT          CLOUDY    30  28  92 SE3       30.02F FOG
GROSSE ILE     CLOUDY    33  32  96 S7        30.03F FOG     WCI  27
HILLSDALE      CLOUDY    34  32  93 S5        30.01S FOG     WCI  30
HOWELL         CLOUDY    31  31  98 S6        30.01F FOG     WCI  25

CITY           SKY/WX    TMP DP  RH WIND       PRES   REMARKS
JACKSON        CLOUDY    35  31  85 S7        30.02R FOG     WCI  29
LAMBERTVILLE   CLOUDY    36  33  90 SW7       30.05S WCI  31
LANSING        CLOUDY    31  30  96 SE3       30.02S FOG
LAPEER         CLOUDY    27  26  96 CALM      30.03F FOG
MASON          CLOUDY    33  29  86 SE3       30.01S FOG
MONROE         CLOUDY    33  31  91 S8        30.04S FOG     WCI  26
MT. CLEMENS    CLOUDY    30  30 100 CALM      30.02F
PONTIAC        CLOUDY    30  30 100 SE3       30.01F FOG
PORT HOPE        N/A     29  24  82 S8        30.03S WCI  21
PORT HURON     CLOUDY    25  19  80 CALM      30.06R
TRI CITIES     CLOUDY    28  26  92 E6        30.02F FOG     WCI  22
MIDLAND        CLOUDY    28  27  96 E6        30.00F FOG     WCI  22
TROY           CLOUDY    31  29  92 CALM      30.05S FOG
SAGINAW HB     CLOUDY    28  27  93 SE5       30.01F FOG     WCI  23
$$
MIZ043>046-050>051-056>058-064>065-071>073-077>080-180400-
SOUTHWEST LOWER MICHIGAN

CITY           SKY/WX    TMP DP  RH WIND       PRES   REMARKS
BATTLE CREEK   CLOUDY    36  32  85 S13       30.00F WCI  27
BENTON HARBOR  CLOUDY    39  33  79 S8        29.99F WCI  33
BIG RAPIDS     FOG       26  26  96 CALM      29.99S VSB 1
COLDWATER      CLOUDY    37  35  90 SW6       30.01S WCI  33
HOLLAND        CLOUDY    29  27  92 SE3       29.99S FOG
GRAND RAPIDS   CLOUDY    30  28  92 E5        29.99F FOG     WCI  25
IONIA          FAIR      29  29  98 SE5       29.99F FOG     WCI  24
KALAMAZOO      CLOUDY    36  31  82 S7        30.00F WCI  30
LUDINGTON      CLOUDY    29  27  92 CALM      29.99F FOG
MARSHALL       CLOUDY    35  33  94 S5        30.00S WCI  31
MOUNT PLEASANT FOG       28  27  94 CALM      30.00F VSB 3/4
MUSKEGON       CLOUDY    31  27  85 E5        29.99F FOG     WCI  26
SOUTH HAVEN    CLOUDY    39  34  80 S5        29.98F
$$
MIZ016>042-180400-
NORTHERN LOWER MICHIGAN

CITY           SKY/WX    TMP DP  RH WIND       PRES   REMARKS
ALPENA         CLOUDY    28  24  85 SE5       30.03F WCI  23
BEAVER ISLAND  CLOUDY    30  28  91 CALM      29.99F
BELLAIRE       CLOUDY    27  26  95 S6        30.01F WCI  21
CADILLAC       FOG       25  24  99 CALM      29.96F VSB 3/4
CHARLEVOIX     CLOUDY    28  26  91 S7        30.03S WCI  21
FRANKFORT      CLOUDY    30  28  92 SE6       29.99F WCI  24
GAYLORD        CLOUDY    23  21  92 S8        29.97F FOG     WCI  14
GRAYLING       CLOUDY    25  21  87 CALM      29.99F
HARBOR SPRINGS CLOUDY    26  24  94 E3        30.00F
HOUGHTON LAKE  CLOUDY    24  23  96 CALM      29.99F FOG
MANISTEE       CLOUDY    28  26  92 SE3       30.00F
OSCODA         CLOUDY    30  26  83 S6        30.02F WCI  24
PELLSTON       CLOUDY    26  23  88 S5        30.01S WCI  20
ROGERS CITY    CLOUDY    27  24  87 S7        30.03F WCI  20
TRAVERSE CITY  CLOUDY    28  24  85 S5        29.99F WCI  23
$$
MIZ007>008-015-180400-
EASTERN UPPER MICHIGAN

CITY           SKY/WX    TMP DP  RH WIND       PRES   REMARKS
MACKINAC ISLAN CLOUDY    28  24  84 S9G18     30.00S WCI  19
NEWBERRY       LGT SNOW  18  17  96 CALM      29.98S
S. S. MARIE    LGT SNOW  20  16  84 E7        30.01F FOG     WCI  11
MUNISING         N/A     26  26 100 S3        29.97S
$$
MIZ004>006-011>014-085-180400-
CENTRAL UPPER MICHIGAN

CITY           SKY/WX    TMP DP  RH WIND       PRES   REMARKS
MANISTIQUE     CLOUDY    32  27  81 S8        29.97S WCI  25
ESCANABA       CLOUDY    28  26  92 NW3       29.98S
MENOMINEE      CLOUDY    30  28  92 CALM      29.98F
SAWYER-GWINN   LGT SNOW  27  25  93 SW8       29.94F WCI  18
$$
MIZ001>003-009>011-084-180400-
WESTERN UPPER MICHIGAN

CITY           SKY/WX    TMP DP  RH WIND       PRES   REMARKS
IRON MOUNTAIN  LGT SNOW  26  23  88 CALM      29.94S FOG
HOUGHTON       CLOUDY    26  21  81 SW6       29.90F WCI  19
COPPER HARBOR    N/A     28  22  78 W3        29.93F
IRONWOOD       MOCLDY    24  22  91 SW5       29.92F WCI  18
$$

ABBREVIATIONS USED IN REMARKS
   TC - TEMPERATURE IN CELSIUS
  WCI - WIND CHILL INDEX
   HX - HEAT INDEX
  VSB - VISIBILITY





USA.gov is the U.S. government's official web portal to all federal, state and local government web resources and services.